[[{"header":{"parameterUnit":"m.s-1","parameterCategory":2,"la1":30.2991,"la2":30.254,"lo1":-89.0895,"lo2":-89.0444,"dy":0.0017,"dx":0.0017,"nx":28,"ny":28,"refTime":"2025-06-17T09:00:00:Z","depth":"0","parameterNumber":2,"parameterNumberName":"U-component_of_CURRENTS"},"data":[0,0,0,0,0,0,0,0,0,0,0,0,0,0,0,0,0,0,0,0,0,0,0,0,0,0,0,0,0,0,0,0,0,0,0,0,0,0,0,0,0,0,0,0,0,0,0,0,0,0,0,0,0,0,0,0,0,0,0.2469,0.2469,0,0.2521,0.2522,0.2522,0.254,0.254,0.254,0.254,0.2542,0.2542,0.2542,0,0,0,0,0,0,0,0,0,0,0,0,0,0.231,0.2313,0.2468,0.2469,0.247,0.2521,0.2522,0.2522,0.254,0.254,0.254,0.254,0.2542,0.2542,0.2542,0,0,0,0,0,0,0,0,0,0,0,0,0,0.2369,0.2314,0.2468,0.2488,0.2491,0.2521,0.2522,0.2522,0.254,0.254,0.254,0.254,0.2542,0.2542,0.2542,0.2537,0,0,0.2541,0.2541,0,0,0,0,0,0,0,0,0.2366,0.2375,0.2484,0.2487,0.249,0.2527,0.2467,0.2526,0.254,0.2517,0.254,0.254,0.2535,0.2535,0.254,0.2537,0.2537,0.2541,0.2541,0.2541,0.2541,0,0,0,0,0,0,0,0.2362,0.2372,0.2486,0.2485,0.2489,0.247,0.2479,0.2478,0.252,0.2519,0.2522,0.2533,0.2535,0.254,0.254,0.2538,0.2541,0.2541,0.2541,0.2541,0.2583,0.2584,0,0,0,0,0,0,0.2367,0.2369,0.2484,0.2488,0.2431,0.2473,0.2483,0.2512,0.2522,0.2525,0.2533,0.2534,0.254,0.254,0.254,0.2558,0.2541,0.2541,0.2541,0.2581,0.2583,0.2584,0,0,0,0,0,0,0.2364,0.2378,0.2482,0.2431,0.2443,0.2477,0.2509,0.2513,0.2522,0.2533,0.2535,0.2539,0.254,0.254,0.2554,0.2557,0.2541,0.2541,0.258,0.2582,0.2583,0.2578,0,0,0,0,0,0,0.2359,0.2377,0.2395,0.2432,0.2447,0.252,0.2509,0.2514,0.2531,0.2533,0.2538,0.2539,0.2541,0.2554,0.2554,0.2557,0.2541,0.2579,0.2581,0.2583,0.2577,0.258,0.2582,0,0,0,0,0,0.2354,0.2395,0.2396,0.241,0.2474,0.2521,0.2527,0.2547,0.2531,0.2551,0.2549,0.2539,0.2568,0.2555,0.2554,0.2557,0.2577,0.258,0.2583,0.2576,0.2579,0.2582,0,0,0,0,0,0,0.2336,0.2402,0.2404,0.2462,0.2493,0.2526,0.2543,0.2546,0.2559,0.255,0.2548,0.255,0.257,0.2567,0.2552,0.258,0.2573,0.2576,0.2568,0.2571,0.2574,0.257,0.2541,0,0,0,0,0,0.234,0.2391,0.2433,0.2478,0.2489,0.2508,0.2525,0.2538,0.2556,0.2561,0.2564,0.2568,0.2579,0.2577,0.2595,0.2596,0.2613,0.2602,0.2605,0.2606,0.2606,0.2666,0.2673,0.2593,0.2593,0.2593,0,0,0.235,0.2388,0.2418,0.2477,0.2493,0.2515,0.2518,0.255,0.2559,0.2557,0.2566,0.2581,0.2587,0.2603,0.261,0.2596,0.2634,0.261,0.2611,0.2609,0.2669,0.2677,0.2684,0.2594,0.2594,0.2594,0,0,0.2382,0.2418,0.2459,0.2483,0.2517,0.2527,0.2535,0.2565,0.2569,0.2584,0.2588,0.2606,0.2614,0.2625,0.2627,0.2652,0.2656,0.2657,0.2648,0.2706,0.2713,0.272,0.2726,0.2733,0.2644,0.2644,0.2644,0,0.2375,0.2436,0.2475,0.2504,0.2514,0.2529,0.2544,0.2557,0.2588,0.2582,0.259,0.2613,0.2625,0.2633,0.2649,0.2655,0.2676,0.263,0.2709,0.2715,0.2722,0.2728,0.2735,0.2644,0.2644,0.2644,0.2644,0,0.2434,0.2465,0.2486,0.2523,0.2542,0.2564,0.2578,0.2586,0.258,0.2587,0.2603,0.2628,0.2638,0.265,0.2654,0.2698,0.2693,0.2714,0.2696,0.273,0.2733,0.2741,0.2645,0.2645,0.2645,0.2645,0,0,0.2433,0.2511,0.2511,0.2513,0.2545,0.2561,0.2567,0.2573,0.2561,0.2592,0.2587,0.2623,0.2634,0.264,0.2654,0.2699,0.2761,0.2724,0.2727,0.272,0.286,0.2681,0.2673,0.2804,0.2806,0.2808,0.2834,0,0.2443,0.2499,0.2532,0.2546,0.2556,0.2562,0.2562,0.2568,0.2569,0.2574,0.2593,0.2607,0.2628,0.2635,0.2687,0.2748,0.2787,0.2749,0.2837,0.2839,0.2669,0.2678,0.2506,0.25,0.2842,0.2843,0.2844,0,0.2462,0.2494,0.2523,0.2533,0.2534,0.2543,0.2522,0.2531,0.2538,0.2539,0.2556,0.2577,0.2624,0.2656,0.2762,0.274,0.2802,0.285,0.2853,0.2694,0.2675,0.253,0.2503,0.2421,0.2857,0.2856,0.2855,0,0.2421,0.2468,0.2486,0.2496,0.2522,0.2513,0.2515,0.2514,0.2504,0.2524,0.252,0.2575,0.2598,0.27,0.2767,0.2788,0.288,0.2922,0.2812,0.2799,0.267,0.264,0.2564,0.3017,0.3017,0.3017,0.3017,0,0.2406,0.2407,0.2468,0.2474,0.2462,0.2487,0.2465,0.247,0.2475,0.2461,0.2505,0.2504,0.2623,0.267,0.2761,0.277,0.2873,0.28,0.2797,0.2657,0.2628,0.2564,0.2543,0.3018,0.3018,0.3018,0.3018,0,0.235,0.24,0.2406,0.2441,0.2444,0.2433,0.2433,0.242,0.243,0.2417,0.2424,0.2464,0.2504,0.2576,0.2714,0.272,0.267,0.2768,0.2553,0.2521,0.2304,0.2289,0.2125,0.2093,0.2647,0.2642,0.2639,0,0.2333,0.234,0.2374,0.2377,0.239,0.2385,0.2376,0.2391,0.2379,0.2384,0.2375,0.2392,0.2383,0.2443,0.2443,0.2487,0.2506,0.2368,0.2372,0.2238,0.2225,0.2166,0.2151,0.2209,0.2202,0.2197,0.2192,0,0.2288,0.2302,0.2321,0.2324,0.2323,0.2313,0.2309,0.229,0.2301,0.2281,0.226,0.2253,0.2227,0.2143,0.2135,0.2172,0.2179,0.2249,0.2205,0.1926,0.1769,0.1753,0.2222,0.2142,0.2147,0.2151,0.2154,0.2156,0.2255,0.2254,0.2283,0.2265,0.2261,0.2232,0.2184,0.218,0.2138,0.2059,0.2129,0.2028,0.1922,0.1848,0.1851,0.1686,0.1804,0.1674,0.1685,0.1651,0.1543,0.1844,0.1697,0.1699,0.1701,0.1703,0.1704,0,0.2212,0.222,0.2219,0.2196,0.2138,0.2161,0.2121,0.2043,0.1952,0.1898,0.1845,0.164,0.1497,0.1423,0.1243,0.1161,0.1172,0.1146,0.108,0.112,0.1467,0.1369,0.1027,0.1027,0.1027,0.1027,0.1027,0.1027,0.2204,0.2189,0.218,0.2077,0.2039,0.1925,0.1875,0.1776,0.1698,0.149,0.1326,0.1279,0.1153,0.092,0.0767,0.0763,0.0761,0.0626,0.0751,0.1031,0.1084,0.1134,0.1038,0.0632,0.0632,0.0348,0.0345,0.0343]},{"header":{"parameterUnit":"m.s-1","parameterCategory":2,"la1":30.2991,"la2":30.254,"lo1":-89.0895,"lo2":-89.0444,"dy":0.0017,"dx":0.0017,"nx":28,"ny":28,"refTime":"2025-06-17T09:00:00:Z","depth":"0","parameterNumber":3,"parameterNumberName":"V-component_of_CURRENTS"},"data":[0,0,0,0,0,0,0,0,0,0,0,0,0,0,0,0,0,0,0,0,0,0,0,0,0,0,0,0,0,0,0,0,0,0,0,0,0,0,0,0,0,0,0,0,0,0,0,0,0,0,0,0,0,0,0,0,0,0,0.0219,0.0219,0,0.023,0.023,0.023,0.0217,0.0217,0.0216,0.0216,0.0208,0.0208,0.0209,0,0,0,0,0,0,0,0,0,0,0,0,0,0.0228,0.0227,0.0219,0.0219,0.0219,0.023,0.023,0.023,0.0218,0.0217,0.0216,0.0216,0.0208,0.0208,0.0209,0,0,0,0,0,0,0,0,0,0,0,0,0,0.023,0.0227,0.0219,0.0214,0.0213,0.023,0.023,0.0231,0.0218,0.0217,0.0216,0.0215,0.0208,0.0208,0.0209,0.0227,0,0,0.021,0.021,0,0,0,0,0,0,0,0,0.023,0.023,0.0214,0.0214,0.0214,0.0221,0.0231,0.0228,0.0218,0.0216,0.0216,0.0215,0.0211,0.0211,0.0216,0.0227,0.0227,0.021,0.021,0.0211,0.0211,0,0,0,0,0,0,0,0.023,0.023,0.0224,0.0214,0.0214,0.0225,0.0224,0.023,0.0218,0.0217,0.0215,0.0216,0.0211,0.0216,0.0216,0.0226,0.021,0.021,0.0211,0.0211,0.0268,0.0269,0,0,0,0,0,0,0.0226,0.0229,0.0223,0.0224,0.0219,0.0225,0.0224,0.022,0.0218,0.0217,0.0217,0.0216,0.0215,0.0215,0.0215,0.0253,0.0211,0.0211,0.0211,0.0267,0.0268,0.027,0,0,0,0,0,0,0.0226,0.0225,0.0223,0.0227,0.0227,0.0225,0.0221,0.0221,0.0222,0.0219,0.0217,0.0218,0.0215,0.0215,0.023,0.0252,0.0211,0.0212,0.0265,0.0267,0.0269,0.0319,0,0,0,0,0,0,0.0226,0.0225,0.0222,0.0226,0.0227,0.0237,0.0222,0.0221,0.0224,0.0222,0.022,0.0218,0.0214,0.023,0.0231,0.0252,0.0212,0.0264,0.0266,0.0268,0.0315,0.0322,0.0328,0,0,0,0,0,0.0227,0.0229,0.0222,0.0222,0.0222,0.0238,0.024,0.0236,0.0224,0.0233,0.0234,0.0218,0.0245,0.0231,0.0232,0.0254,0.0263,0.0266,0.0268,0.0313,0.0321,0.0328,0,0,0,0,0,0,0.023,0.0228,0.0221,0.022,0.0229,0.0236,0.0242,0.0238,0.0246,0.0242,0.0234,0.0234,0.0256,0.025,0.0234,0.0278,0.0252,0.0255,0.0285,0.0293,0.0299,0.0312,0.0212,0,0,0,0,0,0.023,0.0231,0.0232,0.0235,0.0237,0.0239,0.0244,0.0243,0.0249,0.0251,0.0252,0.0256,0.0271,0.0276,0.0285,0.0308,0.031,0.0323,0.0329,0.0334,0.0347,0.0387,0.0398,0.0279,0.0279,0.0279,0,0,0.0233,0.0232,0.0232,0.0236,0.024,0.0254,0.024,0.0251,0.0265,0.025,0.027,0.0276,0.0282,0.0311,0.032,0.0306,0.0365,0.0338,0.0342,0.0352,0.0391,0.0402,0.0413,0.0281,0.0281,0.028,0,0,0.0246,0.0238,0.0245,0.0254,0.0262,0.0266,0.0269,0.0278,0.0283,0.0305,0.0302,0.0329,0.0337,0.036,0.0368,0.0415,0.0396,0.0408,0.0451,0.049,0.05,0.0509,0.0508,0.0516,0.0412,0.0412,0.0412,0,0.0247,0.0254,0.0252,0.0264,0.0274,0.0272,0.0287,0.0299,0.0314,0.0332,0.0315,0.0367,0.0367,0.0422,0.0437,0.0431,0.0432,0.0421,0.0498,0.0507,0.0516,0.0513,0.0522,0.0415,0.0414,0.0414,0.0414,0,0.0269,0.0275,0.0283,0.0295,0.0307,0.0322,0.0335,0.0352,0.0355,0.0372,0.0421,0.0437,0.047,0.0476,0.0468,0.0533,0.0506,0.0501,0.0479,0.0531,0.0524,0.0532,0.0419,0.0418,0.0417,0.0416,0,0,0.0271,0.0291,0.0294,0.0304,0.0323,0.0337,0.0366,0.04,0.0432,0.0453,0.0508,0.0539,0.0552,0.0565,0.0569,0.0603,0.0653,0.0576,0.0577,0.0574,0.071,0.0689,0.0696,0.0659,0.0662,0.0663,0.0674,0,0.0287,0.0311,0.032,0.0351,0.0364,0.0379,0.0411,0.0444,0.0473,0.0528,0.0563,0.0611,0.0584,0.061,0.0642,0.0664,0.0681,0.0649,0.0662,0.0662,0.0638,0.0708,0.0696,0.0705,0.0682,0.0683,0.0684,0,0.0308,0.032,0.0346,0.0379,0.0387,0.0408,0.0462,0.0492,0.0566,0.0594,0.0653,0.068,0.0747,0.0712,0.0769,0.0748,0.073,0.0733,0.0733,0.0707,0.0659,0.0654,0.0721,0.0745,0.0697,0.0696,0.0695,0,0.0316,0.0342,0.0361,0.0372,0.0408,0.0428,0.0451,0.0514,0.0557,0.0645,0.0697,0.0764,0.0815,0.0825,0.0821,0.0801,0.0871,0.0843,0.08,0.0795,0.0787,0.0779,0.0882,0.0872,0.0872,0.0872,0.0872,0,0.0338,0.0358,0.0363,0.0378,0.0411,0.0433,0.0489,0.0528,0.0608,0.0686,0.0732,0.0813,0.0849,0.089,0.086,0.0864,0.0898,0.0827,0.0816,0.08,0.0794,0.0813,0.0817,0.0872,0.0872,0.0872,0.0872,0,0.0364,0.0365,0.0388,0.0409,0.0417,0.0442,0.0499,0.0554,0.0618,0.0728,0.0763,0.0868,0.0924,0.0928,0.0958,0.0921,0.0931,0.0893,0.0853,0.0838,0.0822,0.0828,0.0905,0.0945,0.0865,0.0865,0.0865,0,0.0387,0.0394,0.0404,0.0417,0.0428,0.0462,0.05,0.0556,0.0623,0.0765,0.0831,0.0919,0.0995,0.1021,0.0976,0.0931,0.0932,0.0878,0.0848,0.0846,0.0846,0.0846,0.0875,0.084,0.084,0.084,0.084,0,0.0427,0.042,0.0435,0.045,0.0476,0.0517,0.0573,0.0624,0.0718,0.0809,0.0941,0.1011,0.1041,0.1035,0.0972,0.0927,0.0915,0.087,0.0903,0.0876,0.0852,0.0876,0.0777,0.0837,0.0837,0.0838,0.0838,0.0838,0.0457,0.0465,0.0471,0.049,0.0523,0.0582,0.0623,0.0702,0.0803,0.0946,0.1004,0.1102,0.1088,0.1018,0.0966,0.0883,0.0899,0.0856,0.0871,0.0877,0.0912,0.0792,0.0821,0.0821,0.0821,0.0821,0.0821,0,0.0491,0.0495,0.0514,0.0538,0.0581,0.0592,0.0683,0.073,0.0845,0.0974,0.1073,0.1119,0.1096,0.1033,0.0931,0.0901,0.0895,0.0891,0.0905,0.0942,0.0864,0.086,0.086,0.086,0.086,0.086,0.086,0.086,0.0512,0.0528,0.0525,0.0581,0.0605,0.0665,0.0716,0.0792,0.0878,0.0999,0.1059,0.1119,0.1126,0.1018,0.0969,0.0947,0.0997,0.0947,0.1008,0.0951,0.0949,0.0948,0.0948,0.0966,0.0966,0.1086,0.1087,0.1088]}],[{"header":{"parameterUnit":"m.s-1","parameterCategory":2,"la1":30.2991,"la2":30.254,"lo1":-89.0895,"lo2":-89.0444,"dy":0.0017,"dx":0.0017,"nx":28,"ny":28,"refTime":"2025-06-17T09:00:00:Z","depth":"2","parameterNumber":2,"parameterNumberName":"U-component_of_CURRENTS"},"data":[0,0,0,0,0,0,0,0,0,0,0,0,0,0,0,0,0,0,0,0,0,0,0,0,0,0,0,0,0,0,0,0,0,0,0,0,0,0,0,0,0,0,0,0,0,0,0,0,0,0,0,0,0,0,0,0,0,0,0.1984,0.1986,0,0.211,0.2111,0.2112,0.2147,0.2147,0.2147,0.2147,0.22,0.2201,0.2203,0,0,0,0,0,0,0,0,0,0,0,0,0,0.1709,0.1714,0.1984,0.1986,0.1988,0.211,0.2111,0.2112,0.2147,0.2147,0.2147,0.2147,0.2199,0.2201,0.2203,0,0,0,0,0,0,0,0,0,0,0,0,0,0.1824,0.1715,0.1983,0.2026,0.2031,0.211,0.2111,0.2112,0.2147,0.2147,0.2147,0.2147,0.2199,0.2201,0.2203,0.2218,0,0,0.221,0.2211,0,0,0,0,0,0,0,0,0.1818,0.1834,0.2017,0.2023,0.2029,0.2119,0.2034,0.2147,0.2147,0.2095,0.2147,0.2147,0.2171,0.2175,0.219,0.222,0.2223,0.221,0.2211,0.2212,0.2213,0,0,0,0,0,0,0,0.181,0.1828,0.2026,0.202,0.2027,0.2017,0.2033,0.2055,0.2125,0.21,0.2104,0.213,0.2173,0.2188,0.2191,0.2223,0.221,0.2212,0.2213,0.2214,0.2316,0.2318,0,0,0,0,0,0,0.1814,0.1821,0.2022,0.2031,0.193,0.2023,0.2041,0.2084,0.2126,0.2136,0.213,0.2132,0.2184,0.2189,0.2193,0.2252,0.2212,0.2214,0.2215,0.2315,0.2317,0.2318,0,0,0,0,0,0,0.1807,0.1831,0.2017,0.1933,0.1957,0.2029,0.2077,0.2087,0.2125,0.2152,0.2158,0.2161,0.2184,0.219,0.2217,0.2253,0.2215,0.2217,0.2313,0.2315,0.2317,0.2345,0,0,0,0,0,0,0.1799,0.1828,0.1884,0.1934,0.1962,0.2102,0.2078,0.209,0.2143,0.2147,0.218,0.2184,0.2185,0.2214,0.222,0.2255,0.2219,0.2312,0.2314,0.2317,0.2343,0.2348,0.2353,0,0,0,0,0,0.1789,0.1849,0.1886,0.1912,0.203,0.2105,0.2119,0.2162,0.2145,0.2188,0.2179,0.2184,0.2236,0.2216,0.2223,0.226,0.231,0.2313,0.2317,0.234,0.2347,0.2353,0,0,0,0,0,0,0.1781,0.1861,0.1902,0.1994,0.2068,0.2115,0.215,0.2175,0.2203,0.2196,0.2193,0.2198,0.224,0.2245,0.2224,0.2299,0.2278,0.2282,0.2294,0.2301,0.2306,0.2294,0.2221,0,0,0,0,0,0.1805,0.1858,0.1947,0.2026,0.2052,0.2103,0.2143,0.2181,0.2206,0.2219,0.224,0.2249,0.2257,0.2273,0.2294,0.2329,0.2335,0.2361,0.2366,0.237,0.2366,0.2412,0.242,0.2329,0.2329,0.2329,0,0,0.1805,0.1879,0.1899,0.2027,0.2065,0.2114,0.2124,0.2194,0.2225,0.2218,0.2256,0.2274,0.227,0.2309,0.2329,0.2318,0.2399,0.2374,0.2378,0.2371,0.2416,0.2425,0.2433,0.2331,0.233,0.233,0,0,0.1843,0.191,0.1965,0.2022,0.2124,0.2147,0.2172,0.2242,0.2262,0.2309,0.23,0.2334,0.2362,0.2371,0.2367,0.2415,0.2425,0.2437,0.2453,0.2498,0.2506,0.2513,0.2524,0.2532,0.2439,0.2439,0.2439,0,0.1857,0.1949,0.1997,0.2072,0.2108,0.2155,0.2208,0.2232,0.2311,0.2316,0.2328,0.2367,0.2384,0.2394,0.2416,0.2427,0.2444,0.2426,0.2504,0.2511,0.2517,0.2528,0.2536,0.2441,0.2441,0.244,0.244,0,0.1934,0.2006,0.2031,0.2124,0.2174,0.2225,0.2264,0.23,0.2316,0.2346,0.2388,0.2414,0.2434,0.2459,0.2447,0.2505,0.2499,0.2505,0.2484,0.2528,0.2536,0.2544,0.2443,0.2443,0.2442,0.2442,0,0,0.1962,0.206,0.2073,0.2107,0.22,0.2236,0.2263,0.2305,0.2298,0.2379,0.2385,0.2431,0.2462,0.2461,0.2481,0.2526,0.2593,0.2542,0.2543,0.2545,0.2677,0.2411,0.2394,0.2621,0.2623,0.2625,0.2661,0,0.2011,0.2123,0.216,0.2219,0.2264,0.2278,0.2287,0.2328,0.2346,0.2364,0.2395,0.242,0.2453,0.2474,0.2527,0.2573,0.2617,0.2581,0.2641,0.2642,0.2394,0.2395,0.2242,0.2238,0.2669,0.267,0.2671,0,0.2089,0.2155,0.2227,0.2253,0.2264,0.2291,0.229,0.2315,0.2329,0.2342,0.2382,0.2407,0.247,0.2497,0.2603,0.2583,0.2636,0.2675,0.2677,0.242,0.2389,0.2267,0.2236,0.2684,0.2683,0.2682,0.2681,0,0.2096,0.2185,0.2229,0.2249,0.2296,0.2296,0.2303,0.2321,0.2315,0.2343,0.2353,0.2417,0.2453,0.2541,0.2612,0.2627,0.2713,0.2739,0.2546,0.2529,0.2399,0.2363,0.2819,0.2819,0.2819,0.2819,0.2819,0,0.2125,0.2152,0.223,0.2248,0.2262,0.2305,0.2293,0.2297,0.2308,0.23,0.2356,0.2367,0.2476,0.2525,0.2604,0.2562,0.2709,0.2528,0.2512,0.2398,0.2363,0.2754,0.2746,0.2821,0.282,0.282,0.282,0,0.2091,0.2155,0.2204,0.226,0.227,0.228,0.2273,0.226,0.2286,0.2281,0.2294,0.2344,0.2383,0.245,0.2563,0.2507,0.2529,0.2491,0.2312,0.2267,0.2324,0.2318,0.2265,0.2256,0.2248,0.2242,0.2236,0,0.2076,0.2116,0.2192,0.2207,0.2219,0.2234,0.2232,0.2252,0.2239,0.2262,0.2257,0.2283,0.2258,0.2255,0.2195,0.2184,0.2362,0.1991,0.1956,0.2273,0.2265,0.2271,0.2275,0.1834,0.1826,0.1819,0.1814,0,0.2047,0.2083,0.2106,0.2142,0.2162,0.2158,0.2162,0.2145,0.2163,0.2141,0.2125,0.2106,0.2051,0.1897,0.1796,0.1795,0.1958,0.1835,0.227,0.1937,0.1852,0.1848,0.1871,0.1753,0.1759,0.1763,0.1767,0.1769,0.2018,0.2026,0.2069,0.2059,0.2074,0.2061,0.2013,0.2006,0.1955,0.1858,0.1925,0.1786,0.1755,0.1453,0.141,0.1353,0.1496,0.1456,0.1486,0.1522,0.1403,0.1302,0.1079,0.1081,0.1083,0.1085,0.1086,0,0.1938,0.1971,0.1979,0.1974,0.1896,0.1964,0.1933,0.1841,0.1728,0.1647,0.1547,0.1287,0.1128,0.1149,0.0945,0.0864,0.0971,0.0845,0.1025,0.1082,0.1133,0.1005,0.0571,0.057,0.0569,0.0568,0,0,0.1925,0.1913,0.1901,0.1798,0.1769,0.1692,0.1657,0.1537,0.1431,0.1202,0.1053,0.1008,0.1047,0.0775,0.0732,0.0633,0.0869,0.0598,0.1007,0.1275,0.1326,0.1466,0.1325,0,0,0,0,0]},{"header":{"parameterUnit":"m.s-1","parameterCategory":2,"la1":30.2991,"la2":30.254,"lo1":-89.0895,"lo2":-89.0444,"dy":0.0017,"dx":0.0017,"nx":28,"ny":28,"refTime":"2025-06-17T09:00:00:Z","depth":"2","parameterNumber":3,"parameterNumberName":"V-component_of_CURRENTS"},"data":[0,0,0,0,0,0,0,0,0,0,0,0,0,0,0,0,0,0,0,0,0,0,0,0,0,0,0,0,0,0,0,0,0,0,0,0,0,0,0,0,0,0,0,0,0,0,0,0,0,0,0,0,0,0,0,0,0,0,-0.0217,-0.0216,0,-0.0126,-0.0125,-0.0124,-0.0094,-0.0095,-0.0095,-0.0095,-0.0074,-0.0073,-0.0072,0,0,0,0,0,0,0,0,0,0,0,0,0,-0.0206,-0.0207,-0.0217,-0.0216,-0.0215,-0.0126,-0.0125,-0.0124,-0.0094,-0.0095,-0.0095,-0.0095,-0.0074,-0.0073,-0.0072,0,0,0,0,0,0,0,0,0,0,0,0,0,-0.0174,-0.0208,-0.0218,-0.0189,-0.0185,-0.0127,-0.0125,-0.0124,-0.0094,-0.0095,-0.0095,-0.0096,-0.0075,-0.0073,-0.0072,-0.0054,0,0,-0.0068,-0.0067,0,0,0,0,0,0,0,0,-0.0176,-0.0174,-0.0194,-0.0191,-0.0187,-0.0121,-0.0113,-0.0104,-0.0094,-0.013,-0.0095,-0.0096,-0.0095,-0.0092,-0.0074,-0.0053,-0.0052,-0.0068,-0.0067,-0.0067,-0.0066,0,0,0,0,0,0,0,-0.0178,-0.0177,-0.0182,-0.0193,-0.0188,-0.0125,-0.0123,-0.011,-0.0113,-0.0127,-0.0124,-0.0112,-0.0094,-0.0076,-0.0074,-0.0052,-0.0068,-0.0067,-0.0066,-0.0065,-0.0002,-0.0001,0,0,0,0,0,0,-0.0196,-0.018,-0.0185,-0.0179,-0.0181,-0.0126,-0.0123,-0.0143,-0.0111,-0.0106,-0.0112,-0.0111,-0.0078,-0.0075,-0.0073,-0.0018,-0.0067,-0.0065,-0.0065,-0.0002,-0.0001,-0.0,0,0,0,0,0,0,-0.0197,-0.0199,-0.0189,-0.0175,-0.0169,-0.0127,-0.0148,-0.014,-0.0114,-0.0099,-0.0096,-0.0093,-0.0078,-0.0075,-0.0053,-0.0019,-0.0065,-0.0064,-0.0004,-0.0002,-0.0001,0.007,0,0,0,0,0,0,-0.0197,-0.02,-0.0197,-0.0177,-0.0171,-0.0139,-0.0147,-0.0138,-0.0106,-0.0104,-0.0082,-0.008,-0.0078,-0.0055,-0.0052,-0.0018,-0.0063,-0.0005,-0.0003,-0.0001,0.0067,0.0074,0.008,0,0,0,0,0,-0.0198,-0.0194,-0.0198,-0.0197,-0.0177,-0.0138,-0.0128,-0.0098,-0.0105,-0.008,-0.0075,-0.0081,-0.0042,-0.0053,-0.005,-0.0014,-0.0006,-0.0003,-0.0001,0.0064,0.0073,0.008,0,0,0,0,0,0,-0.0192,-0.019,-0.0194,-0.0193,-0.0162,-0.0132,-0.0104,-0.0093,-0.0066,-0.0064,-0.0068,-0.0065,-0.0035,-0.0038,-0.0051,0.0007,-0.0025,-0.0022,0.0023,0.0031,0.0038,0.0052,-0.0061,0,0,0,0,0,-0.0191,-0.019,-0.0174,-0.0171,-0.0159,-0.0133,-0.0108,-0.0086,-0.0068,-0.0055,-0.0041,-0.0032,-0.0023,-0.0008,0.0001,0.0037,0.0034,0.006,0.0067,0.0072,0.0085,0.011,0.012,0.0006,0.0006,0.0006,0,0,-0.0206,-0.0187,-0.0198,-0.0167,-0.0149,-0.0116,-0.0119,-0.0077,-0.0049,-0.0059,-0.0017,-0.0009,-0.0012,0.0027,0.0041,0.0031,0.0101,0.0075,0.008,0.009,0.0113,0.0124,0.0134,0.0008,0.0008,0.0007,0,0,-0.0189,-0.0204,-0.0181,-0.0155,-0.0104,-0.0086,-0.0076,-0.0035,-0.0016,0.0024,0.0019,0.0054,0.0068,0.0092,0.0095,0.0144,0.0129,0.014,0.0198,0.0222,0.0232,0.024,0.0247,0.0255,0.0152,0.0152,0.0152,0,-0.0182,-0.0171,-0.0163,-0.0118,-0.0095,-0.0079,-0.0041,-0.002,0.0029,0.0053,0.0043,0.0101,0.0103,0.0154,0.0171,0.0164,0.0161,0.017,0.0232,0.0241,0.0248,0.0253,0.0261,0.0155,0.0155,0.0155,0.0154,0,-0.0147,-0.013,-0.0115,-0.0069,-0.0036,-0.0004,0.0022,0.0057,0.0074,0.0105,0.0165,0.0184,0.0223,0.023,0.0213,0.0277,0.0252,0.0232,0.0215,0.0265,0.0265,0.0273,0.0161,0.0159,0.0158,0.0157,0,0,-0.0137,-0.0099,-0.009,-0.0066,-0.0009,0.0019,0.0059,0.0111,0.0147,0.0198,0.0259,0.0291,0.032,0.0326,0.0331,0.0359,0.0408,0.0323,0.0323,0.0335,0.0448,0.0407,0.0411,0.0397,0.0399,0.04,0.0426,0,-0.01,-0.0032,-0.0018,0.0034,0.0067,0.0084,0.012,0.0172,0.0211,0.0274,0.0313,0.0368,0.0348,0.0383,0.041,0.0415,0.0433,0.0403,0.0394,0.0393,0.0356,0.0421,0.0389,0.0407,0.0433,0.0434,0.0435,0,-0.0044,-0.0007,0.0048,0.0088,0.0101,0.0135,0.02,0.0236,0.0313,0.0347,0.0421,0.045,0.0524,0.0484,0.0533,0.0512,0.0485,0.0477,0.0477,0.0422,0.0368,0.0362,0.0419,0.0448,0.0447,0.0446,0.0445,0,-0.001,0.0043,0.0083,0.0096,0.0146,0.0174,0.0201,0.0274,0.0317,0.041,0.0474,0.0541,0.0603,0.0594,0.0587,0.0561,0.0619,0.0578,0.0513,0.0508,0.0472,0.0462,0.0592,0.0592,0.0592,0.0592,0.0592,0,0.0034,0.007,0.0097,0.0117,0.0168,0.0201,0.0266,0.0304,0.0387,0.0469,0.0523,0.0613,0.0632,0.067,0.0626,0.061,0.065,0.0541,0.0524,0.0493,0.0485,0.0509,0.0499,0.0593,0.0593,0.0593,0.0593,0,0.0076,0.0088,0.0139,0.0177,0.019,0.0232,0.0287,0.0341,0.0417,0.0532,0.0573,0.0684,0.0739,0.0733,0.0734,0.0672,0.0644,0.0611,0.0567,0.0544,0.0502,0.0495,0.0554,0.0553,0.0552,0.0552,0.0551,0,0.0106,0.0137,0.0175,0.0194,0.0211,0.0259,0.0301,0.0358,0.0423,0.0581,0.0652,0.0748,0.0821,0.0815,0.0731,0.0657,0.0645,0.0554,0.0497,0.0527,0.0504,0.0499,0.0493,0.0475,0.0474,0.0473,0.0473,0,0.0165,0.0176,0.0197,0.0235,0.0273,0.0312,0.0373,0.0425,0.0523,0.0623,0.0765,0.0834,0.0851,0.0795,0.0692,0.0622,0.0566,0.0529,0.0606,0.0481,0.0453,0.043,0.0427,0.0464,0.0465,0.0466,0.0466,0.0466,0.021,0.0225,0.0247,0.028,0.0319,0.0377,0.042,0.0498,0.0602,0.0751,0.0805,0.0883,0.0841,0.0697,0.0614,0.0501,0.0511,0.044,0.0443,0.0448,0.0425,0.0396,0.0392,0.0393,0.0393,0.0393,0.0394,0,0.0249,0.0264,0.029,0.0327,0.0369,0.0391,0.048,0.053,0.0655,0.0751,0.0845,0.0768,0.0721,0.0656,0.048,0.0389,0.038,0.0348,0.0359,0.0367,0.0375,0.0349,0.0296,0.0296,0.0295,0.0295,0,0,0.027,0.0297,0.0295,0.0366,0.0399,0.0472,0.0529,0.0609,0.0672,0.0741,0.0761,0.0812,0.073,0.0584,0.0481,0.0386,0.0389,0.0354,0.0435,0.0467,0.0475,0.0425,0.0393,0,0,0,0,0]}],[{"header":{"parameterUnit":"m.s-1","parameterCategory":2,"la1":30.2991,"la2":30.254,"lo1":-89.0895,"lo2":-89.0444,"dy":0.0017,"dx":0.0017,"nx":28,"ny":28,"refTime":"2025-06-17T09:00:00:Z","depth":"4","parameterNumber":2,"parameterNumberName":"U-component_of_CURRENTS"},"data":[0,0,0,0,0,0,0,0,0,0,0,0,0,0,0,0,0,0,0,0,0,0,0,0,0,0,0,0,0,0,0,0,0,0,0,0,0,0,0,0,0,0,0,0,0,0,0,0,0,0,0,0,0,0,0,0,0,0,-0.0396,-0.0397,0,-0.0436,-0.0437,-0.0437,-0.0473,-0.0473,-0.0474,-0.0474,-0.04,-0.0398,-0.0395,0,0,0,0,0,0,0,0,0,0,0,0,0,-0.0275,-0.0278,-0.0396,-0.0397,-0.0397,-0.0436,-0.0437,-0.0437,-0.0473,-0.0474,-0.0474,-0.0474,-0.0401,-0.0398,-0.0395,0,0,0,0,0,0,0,0,0,0,0,0,0,-0.0323,-0.0278,-0.0396,-0.042,-0.0422,-0.0436,-0.0437,-0.0437,-0.0473,-0.0474,-0.0474,-0.0475,-0.0402,-0.0398,-0.0395,-0.0361,0,0,-0.0384,-0.0382,0,0,0,0,0,0,0,0,-0.032,-0.0327,-0.0416,-0.0418,-0.0421,-0.045,-0.0367,-0.0406,-0.0473,-0.0454,-0.0474,-0.0475,-0.0405,-0.0402,-0.041,-0.0357,-0.0354,-0.0384,-0.0382,-0.038,-0.0379,0,0,0,0,0,0,0,-0.0317,-0.0325,-0.0412,-0.0416,-0.0419,-0.0402,-0.041,-0.0374,-0.0424,-0.0456,-0.0458,-0.0462,-0.0406,-0.0413,-0.0408,-0.0353,-0.0384,-0.0381,-0.0379,-0.0377,-0.0198,-0.0196,0,0,0,0,0,0,-0.0315,-0.0323,-0.0411,-0.0414,-0.0371,-0.0404,-0.0413,-0.044,-0.0427,-0.0426,-0.0461,-0.0464,-0.0419,-0.0412,-0.0405,-0.0301,-0.038,-0.0377,-0.0375,-0.0201,-0.0198,-0.0195,0,0,0,0,0,0,-0.0313,-0.0324,-0.041,-0.0367,-0.0377,-0.0406,-0.0436,-0.0441,-0.046,-0.0433,-0.043,-0.0477,-0.0419,-0.041,-0.0362,-0.0301,-0.0375,-0.0372,-0.0204,-0.02,-0.0196,-0.0132,0,0,0,0,0,0,-0.031,-0.0323,-0.0351,-0.0368,-0.0379,-0.0426,-0.0435,-0.0441,-0.0461,-0.0464,-0.0444,-0.0438,-0.0419,-0.0367,-0.0359,-0.0297,-0.0369,-0.0207,-0.0202,-0.0197,-0.0138,-0.0127,-0.0117,0,0,0,0,0,-0.0306,-0.0339,-0.0353,-0.0364,-0.0415,-0.0427,-0.0431,-0.0452,-0.0461,-0.0472,-0.044,-0.0439,-0.0329,-0.0363,-0.0353,-0.0289,-0.021,-0.0204,-0.0198,-0.0143,-0.0129,-0.0118,0,0,0,0,0,0,-0.0302,-0.0346,-0.0362,-0.0409,-0.042,-0.0433,-0.0449,-0.0457,-0.0445,-0.0445,-0.0418,-0.0408,-0.0337,-0.0325,-0.0364,-0.0221,-0.0264,-0.0256,-0.0225,-0.0212,-0.0202,-0.0201,-0.0366,0,0,0,0,0,-0.0314,-0.0355,-0.0376,-0.0414,-0.042,-0.0435,-0.0446,-0.0456,-0.0445,-0.0445,-0.0409,-0.0362,-0.0302,-0.0272,-0.0228,-0.016,-0.0189,-0.0108,-0.0097,-0.0089,-0.0079,-0.0079,-0.0069,-0.0175,-0.0175,-0.0175,0,0,-0.0327,-0.0352,-0.0379,-0.0416,-0.0428,-0.0437,-0.0444,-0.0461,-0.0444,-0.0432,-0.0382,-0.0332,-0.0279,-0.0195,-0.016,-0.0179,-0.0076,-0.0081,-0.0075,-0.0069,-0.0072,-0.0062,-0.0053,-0.0171,-0.0172,-0.0173,0,0,-0.0348,-0.039,-0.0419,-0.0427,-0.0444,-0.0449,-0.0455,-0.0451,-0.0427,-0.0368,-0.0342,-0.0269,-0.0178,-0.0128,-0.009,0.0,-0.0027,0.0035,0.0096,0.0096,0.0104,0.0111,0.0066,0.0068,0.0047,0.0047,0.0047,0,-0.0353,-0.0399,-0.0425,-0.0437,-0.044,-0.0454,-0.0459,-0.0437,-0.0405,-0.0349,-0.0341,-0.0177,-0.0144,-0.0035,0.0016,0.0023,0.0007,0.0041,0.0106,0.0112,0.0118,0.0071,0.0072,0.005,0.005,0.005,0.0049,0,-0.0384,-0.0416,-0.0426,-0.0452,-0.0456,-0.0465,-0.0438,-0.0397,-0.035,-0.0303,-0.017,-0.0106,0.0001,0.0034,0.0064,0.0151,0.0119,0.0109,0.0065,0.0132,0.0078,0.0078,0.0056,0.0055,0.0053,0.0052,0,0,-0.0397,-0.044,-0.0443,-0.045,-0.0461,-0.0464,-0.0408,-0.0346,-0.0281,-0.0196,-0.0092,0.0041,0.0099,0.0147,0.0192,0.0209,0.0233,0.0198,0.0196,0.0136,0.0211,0.0209,0.0208,0.0241,0.0243,0.0244,0.0148,0,-0.0405,-0.0432,-0.0447,-0.0458,-0.0466,-0.0437,-0.0375,-0.0311,-0.0226,-0.0122,-0.0017,0.0097,0.0134,0.0211,0.024,0.0243,0.0243,0.0258,0.0172,0.0168,0.0145,0.0213,0.0247,0.0147,0.0147,0.0147,0.0147,0,-0.0419,-0.0435,-0.0453,-0.0436,-0.0432,-0.0421,-0.032,-0.0259,-0.0116,-0.0028,0.0102,0.0171,0.027,0.0268,0.0297,0.0313,0.0281,0.0254,0.0249,0.0229,0.017,0.0075,0.0147,0.0147,0.0147,0.0147,0.0147,0,-0.041,-0.0431,-0.0445,-0.0448,-0.043,-0.0384,-0.0335,-0.021,-0.0124,0.0041,0.0108,0.0231,0.0294,0.0298,0.0272,0.0304,0.0229,0.0252,0.0201,0.0197,0.0191,0.0185,0.0239,0.0239,0.0239,0.0239,0.024,0,-0.0403,-0.0417,-0.0437,-0.0442,-0.0406,-0.0368,-0.0271,-0.0185,-0.0047,0.004,0.0166,0.0219,0.0309,0.0284,0.0261,0.0222,0.0217,0.0224,0.0192,0.0217,0.0216,0.0188,0.0183,0.0236,0.0237,0.0237,0.0238,0,-0.0396,-0.0419,-0.0437,-0.0422,-0.041,-0.0366,-0.0258,-0.0176,-0.0042,0.0064,0.0121,0.0222,0.024,0.0241,0.0212,0.0202,0.0152,0.0113,0.0094,0.0058,0.0124,0.0125,0.0117,0.0117,0.0117,0.0116,0.0116,0,-0.0395,-0.0411,-0.0435,-0.0438,-0.0433,-0.036,-0.0302,-0.0168,-0.0095,0.0035,0.0059,0.0131,0.0188,0.0135,0.0136,0.0097,0.0089,0.0044,0.0171,0.0152,0.0121,0.0122,0.0123,0.0116,0.0116,0.0115,0.0115,0,-0.0394,-0.0417,-0.0434,-0.0441,-0.0418,-0.0377,-0.0294,-0.0243,-0.0096,-0.0014,0.0065,0.0119,0.0122,0.0148,0.0105,0.0061,0.0091,0.0042,0.0045,0.0165,0.015,0.0119,0.012,0.0114,0.0114,0.0114,0.0114,0,-0.0397,-0.0406,-0.0437,-0.0434,-0.0414,-0.0382,-0.0342,-0.0254,-0.0159,-0.0006,-0.0021,0.0047,0.0104,0.0117,0.0042,0.0054,0.0109,0.0116,0.0117,0.0118,0.0171,0.0155,0.0108,0,0,0,0,0,-0.038,-0.0392,-0.0416,-0.0407,-0.039,-0.0371,-0.0332,-0.0288,-0.0186,-0.0114,-0.0028,-0.0009,0.0046,0.0039,0.0065,0.0022,0.0063,0.0046,0.0061,0.0108,0.0109,0.0175,0,0,0,0,0,0,-0.0373,-0.0395,-0.0416,-0.0383,-0.0359,-0.0327,-0.0303,-0.026,-0.0204,-0.0106,-0.0083,0.0006,0.0031,0.0065,0.008,0.008,0.009,0.0086,0.0086,0.0107,0.0108,0.0109,0.0177,0,0,0,0,0]},{"header":{"parameterUnit":"m.s-1","parameterCategory":2,"la1":30.2991,"la2":30.254,"lo1":-89.0895,"lo2":-89.0444,"dy":0.0017,"dx":0.0017,"nx":28,"ny":28,"refTime":"2025-06-17T09:00:00:Z","depth":"4","parameterNumber":3,"parameterNumberName":"V-component_of_CURRENTS"},"data":[0,0,0,0,0,0,0,0,0,0,0,0,0,0,0,0,0,0,0,0,0,0,0,0,0,0,0,0,0,0,0,0,0,0,0,0,0,0,0,0,0,0,0,0,0,0,0,0,0,0,0,0,0,0,0,0,0,0,0.0338,0.0338,0,0.0384,0.0385,0.0386,0.0453,0.0454,0.0455,0.0456,0.0542,0.0543,0.0545,0,0,0,0,0,0,0,0,0,0,0,0,0,0.0284,0.0285,0.0337,0.0338,0.0339,0.0384,0.0385,0.0386,0.0453,0.0454,0.0456,0.0457,0.0542,0.0543,0.0545,0,0,0,0,0,0,0,0,0,0,0,0,0,0.0317,0.0285,0.0337,0.0378,0.0382,0.0384,0.0385,0.0386,0.0453,0.0454,0.0456,0.0458,0.0541,0.0543,0.0545,0.0521,0,0,0.055,0.0551,0,0,0,0,0,0,0,0,0.0315,0.0319,0.0371,0.0375,0.038,0.0415,0.0398,0.0433,0.0452,0.0426,0.0457,0.0459,0.0502,0.0507,0.0511,0.0525,0.0528,0.055,0.0552,0.0552,0.0553,0,0,0,0,0,0,0,0.0313,0.0317,0.0356,0.0372,0.0377,0.0386,0.0393,0.0404,0.0454,0.0428,0.0433,0.0438,0.0505,0.0509,0.0514,0.053,0.055,0.0552,0.0553,0.0554,0.0517,0.0516,0,0,0,0,0,0,0.0306,0.0315,0.0355,0.0357,0.0351,0.0386,0.0393,0.0402,0.0453,0.0462,0.0436,0.0441,0.0505,0.0512,0.0517,0.0546,0.0552,0.0554,0.0555,0.0519,0.0517,0.0515,0,0,0,0,0,0,0.0305,0.0309,0.0353,0.0337,0.0343,0.0385,0.0394,0.0402,0.0445,0.0459,0.047,0.0476,0.0507,0.0515,0.058,0.0548,0.0555,0.0556,0.0522,0.0519,0.0516,0.0569,0,0,0,0,0,0,0.0303,0.0309,0.0325,0.0337,0.0344,0.0379,0.0392,0.0401,0.0443,0.045,0.0495,0.0503,0.0509,0.0578,0.0582,0.0551,0.0558,0.0524,0.052,0.0517,0.057,0.0568,0.0567,0,0,0,0,0,0.0301,0.0309,0.0326,0.0331,0.0361,0.038,0.0385,0.042,0.0443,0.0465,0.0514,0.0504,0.0553,0.0581,0.0586,0.0553,0.0526,0.0522,0.0517,0.0571,0.0569,0.0567,0,0,0,0,0,0,0.0294,0.0317,0.0336,0.0352,0.0378,0.0392,0.0417,0.0437,0.0489,0.051,0.0529,0.054,0.0568,0.0552,0.0582,0.0519,0.0515,0.0512,0.0554,0.0552,0.055,0.0557,0.0559,0,0,0,0,0,0.0298,0.0317,0.0338,0.0357,0.0373,0.0402,0.042,0.0443,0.048,0.0506,0.056,0.0567,0.0539,0.0551,0.055,0.0552,0.0522,0.051,0.0509,0.0508,0.0509,0.0428,0.042,0.05,0.05,0.05,0,0,0.0303,0.0317,0.033,0.0358,0.0384,0.0413,0.0419,0.0456,0.0494,0.0505,0.0609,0.0592,0.0542,0.0541,0.0543,0.0537,0.0474,0.0502,0.0503,0.0504,0.0422,0.0415,0.0409,0.0497,0.0497,0.0498,0,0,0.0313,0.0336,0.0359,0.038,0.042,0.0438,0.0457,0.0512,0.0557,0.0625,0.0612,0.06,0.0623,0.0568,0.053,0.0514,0.0477,0.048,0.0482,0.0403,0.0397,0.0391,0.038,0.0372,0.047,0.0471,0.0471,0,0.0324,0.0347,0.0369,0.0394,0.0422,0.0455,0.0491,0.0526,0.0608,0.0633,0.067,0.0636,0.062,0.0534,0.052,0.0513,0.0483,0.0506,0.0406,0.0399,0.0392,0.0381,0.0372,0.0473,0.0472,0.0472,0.0472,0,0.0347,0.0374,0.039,0.0439,0.0473,0.0504,0.0553,0.062,0.0678,0.0691,0.0693,0.067,0.0629,0.0588,0.0558,0.046,0.0464,0.0427,0.0425,0.0388,0.0378,0.0368,0.0475,0.0475,0.0474,0.0474,0,0,0.0348,0.0398,0.0405,0.0436,0.0499,0.0526,0.0602,0.0649,0.0679,0.0731,0.0739,0.0671,0.0643,0.0593,0.0527,0.0453,0.0392,0.042,0.0415,0.0436,0.0263,0.0282,0.0273,0.0335,0.0332,0.033,0.0292,0,0.0366,0.0413,0.0439,0.05,0.0535,0.059,0.0655,0.0701,0.0737,0.0765,0.0694,0.067,0.0639,0.0601,0.0522,0.0415,0.0361,0.0409,0.0271,0.0269,0.031,0.0259,0.0322,0.0284,0.0282,0.028,0.0279,0,0.0381,0.0411,0.0474,0.0538,0.0562,0.0628,0.0717,0.0766,0.0781,0.0794,0.0744,0.0691,0.0587,0.0564,0.0399,0.043,0.0356,0.0285,0.0281,0.027,0.0266,0.0312,0.026,0.0261,0.0263,0.0264,0.0265,0,0.037,0.043,0.0485,0.0509,0.0594,0.0673,0.0744,0.08,0.0827,0.0809,0.0778,0.0679,0.0611,0.0498,0.0376,0.0374,0.0207,0.0183,0.0142,0.0146,0.0124,0.013,0.0068,0.0068,0.0068,0.0069,0.0069,0,0.0369,0.0404,0.0505,0.0534,0.0635,0.0701,0.0794,0.0844,0.0863,0.0826,0.0785,0.0691,0.0581,0.0471,0.0376,0.0242,0.0211,0.0141,0.0118,0.0152,0.0161,0.012,0.0127,0.0067,0.0067,0.0068,0.0068,0,0.0341,0.0397,0.0449,0.0567,0.0639,0.0716,0.0858,0.0883,0.0903,0.0847,0.0827,0.0701,0.0549,0.0466,0.0283,0.0238,0.0115,0.0079,0.0174,0.0158,0.0116,0.0126,0.0026,0.0026,0.0026,0.0026,0.0026,0,0.0326,0.0363,0.0481,0.0553,0.0634,0.0768,0.0859,0.0927,0.0916,0.0809,0.0742,0.0613,0.0512,0.0306,0.0218,0.011,0.008,0.007,0.0046,0.0115,0.0103,0.0112,0.0121,0.0026,0.0026,0.0026,0.0026,0,0.0298,0.0344,0.0381,0.0533,0.0656,0.074,0.0859,0.083,0.0821,0.0834,0.0645,0.0533,0.0374,0.0252,0.0209,0.0103,0.0104,0.0069,0.0067,0.0044,0.0113,0.0103,0.0112,0.0025,0.0025,0.0025,0.0025,0,0.027,0.0282,0.0358,0.0491,0.0627,0.0678,0.0732,0.0725,0.0722,0.062,0.0544,0.0393,0.0348,0.0242,0.0159,0.0118,0.0082,0.0076,0.0074,0.0073,0.0101,0.0197,0.0105,0,0,0,0,0,0.0249,0.0265,0.0342,0.0442,0.0564,0.0656,0.0713,0.0725,0.0698,0.0572,0.0572,0.0422,0.0277,0.02,0.0153,0.0135,0.0072,0.008,0.0063,0.0024,0.0024,0.0049,0,0,0,0,0,0,0.0232,0.0273,0.0292,0.0393,0.0473,0.0573,0.0599,0.0569,0.0509,0.0486,0.041,0.0437,0.0303,0.0316,0.016,0.0145,0.0131,0.0045,0.0045,0.0024,0.0024,0.0024,0.005,0,0,0,0,0]}]]